Time,TemperatureF,DewpointF,PressureIn,WindDirection,WindDirectionDegrees,WindSpeedMPH,WindSpeedGustMPH,Humidity,HourlyPrecipIn,Conditions,Clouds,dailyrainin,SolarRadiationWatts/m^2,SoftwareType,DateUTC
2013-09-20 09:03:00,51.0,32.0,-100.00,SE,140,10.0,17.0,48,-99.99,,,-99.99,233.000000,,2013-09-20 15:03:00,
2013-09-20 09:54:00,51.0,32.0,-100.00,SE,140,10.0,17.0,48,-99.99,,,-99.99,233.000000,,2013-09-20 15:54:00,
2013-09-20 12:42:00,64.0,34.0,-100.00,SSW,205,16.0,28.0,33,0.00,,,0.01,770.000000,,2013-09-20 18:42:00,
2013-09-20 12:52:00,64.0,34.0,-100.00,SSW,205,16.0,28.0,33,0.00,,,0.01,770.000000,,2013-09-20 18:52:00,
2013-09-20 13:02:00,64.0,34.0,-100.00,SSW,205,16.0,28.0,33,0.00,,,0.01,770.000000,,2013-09-20 19:02:00,
2013-09-20 13:03:00,70.0,34.0,-100.00,SSW,195,11.0,27.0,26,0.00,,,0.01,859.000000,,2013-09-20 19:03:00,
2013-09-20 13:42:00,70.0,34.0,-100.00,SSW,195,11.0,27.0,26,0.00,,,0.01,859.000000,,2013-09-20 19:42:00,
2013-09-20 13:53:00,70.0,34.0,-100.00,SSW,195,11.0,27.0,26,0.00,,,0.01,859.000000,,2013-09-20 19:53:00,
2013-09-20 14:42:00,71.0,32.0,-100.00,South,170,13.0,23.0,24,0.00,,,0.01,885.000000,,2013-09-20 20:42:00,
2013-09-20 14:52:00,71.0,32.0,-100.00,South,170,13.0,23.0,24,0.00,,,0.01,885.000000,,2013-09-20 20:52:00,
2013-09-20 15:02:00,71.0,32.0,-100.00,South,170,13.0,23.0,24,0.00,,,0.01,885.000000,,2013-09-20 21:02:00,
2013-09-20 15:03:00,75.0,32.0,-100.00,SSW,194,13.0,25.0,21,0.00,,,0.01,849.000000,,2013-09-20 21:03:00,
2013-09-20 15:44:00,75.0,32.0,-100.00,SSW,194,13.0,25.0,21,0.00,,,0.01,849.000000,,2013-09-20 21:44:00,
2013-09-20 15:54:00,75.0,32.0,-100.00,SSW,194,13.0,25.0,21,0.00,,,0.01,849.000000,,2013-09-20 21:54:00,
2013-09-20 16:24:00,74.0,33.0,-100.00,South,177,12.0,23.0,22,0.00,,,0.01,752.000000,,2013-09-20 22:24:00,
2013-09-20 16:33:00,74.0,33.0,-100.00,South,177,12.0,23.0,22,0.00,,,0.01,752.000000,,2013-09-20 22:33:00,
2013-09-20 16:44:00,74.0,33.0,-100.00,South,177,12.0,23.0,22,0.00,,,0.01,752.000000,,2013-09-20 22:44:00,
2013-09-20 16:53:00,74.0,33.0,-100.00,South,177,12.0,23.0,22,0.00,,,0.01,752.000000,,2013-09-20 22:53:00,
2013-09-20 17:02:00,74.0,33.0,-100.00,South,177,12.0,23.0,22,0.00,,,0.01,752.000000,,2013-09-20 23:02:00,
2013-09-20 17:23:00,76.0,31.0,-100.00,SSW,196,9.0,24.0,19,0.00,,,0.01,623.000000,,2013-09-20 23:23:00,
2013-09-20 17:34:00,76.0,31.0,-100.00,SSW,196,9.0,24.0,19,0.00,,,0.01,623.000000,,2013-09-20 23:34:00,
2013-09-20 17:42:00,76.0,31.0,-100.00,SSW,196,9.0,24.0,19,0.00,,,0.01,623.000000,,2013-09-20 23:42:00,
2013-09-20 17:53:00,76.0,31.0,-100.00,SSW,196,9.0,24.0,19,0.00,,,0.01,623.000000,,2013-09-20 23:53:00,
2013-09-20 18:02:00,76.0,31.0,-100.00,SSW,196,9.0,24.0,19,0.00,,,0.01,623.000000,,2013-09-21 00:02:00,
2013-09-20 18:22:00,77.0,32.0,-100.00,South,177,7.0,22.0,19,0.00,,,0.01,415.000000,,2013-09-21 00:22:00,
2013-09-20 18:33:00,77.0,32.0,-100.00,South,177,7.0,22.0,19,0.00,,,0.01,415.000000,,2013-09-21 00:33:00,
2013-09-20 18:42:00,77.0,32.0,-100.00,South,177,7.0,22.0,19,0.00,,,0.01,415.000000,,2013-09-21 00:42:00,
2013-09-20 18:52:00,77.0,32.0,-100.00,South,177,7.0,22.0,19,0.00,,,0.01,415.000000,,2013-09-21 00:52:00,
2013-09-20 19:01:00,77.0,32.0,-100.00,South,177,7.0,22.0,19,0.00,,,0.01,415.000000,,2013-09-21 01:01:00,
2013-09-20 19:42:00,70.0,32.0,-100.00,SSW,192,7.0,17.0,24,0.00,,,0.01,82.000000,,2013-09-21 01:42:00,
2013-09-20 19:52:00,70.0,32.0,-100.00,SSW,192,7.0,17.0,24,0.00,,,0.01,82.000000,,2013-09-21 01:52:00,
2013-09-20 20:02:00,70.0,32.0,-100.00,SSW,192,7.0,17.0,24,0.00,,,0.01,82.000000,,2013-09-21 02:02:00,
2013-09-20 20:42:00,62.0,33.0,-100.00,SW,224,9.0,13.0,34,0.00,,,0.01,5.000000,,2013-09-21 02:42:00,
2013-09-20 20:52:00,62.0,33.0,-100.00,SW,224,9.0,13.0,34,0.00,,,0.01,5.000000,,2013-09-21 02:52:00,
2013-09-20 21:02:00,62.0,33.0,-100.00,SW,224,9.0,13.0,34,0.00,,,0.01,5.000000,,2013-09-21 03:02:00,
2013-09-20 21:22:00,64.0,32.0,-100.00,SW,218,11.0,12.0,30,0.00,,,0.01,0.000000,,2013-09-21 03:22:00,
2013-09-20 21:34:00,64.0,32.0,-100.00,SW,218,11.0,12.0,30,0.00,,,0.01,0.000000,,2013-09-21 03:34:00,
2013-09-20 21:44:00,64.0,32.0,-100.00,SW,218,11.0,12.0,30,0.00,,,0.01,0.000000,,2013-09-21 03:44:00,
2013-09-20 22:03:00,64.0,27.0,-100.00,SSW,206,9.0,14.0,25,0.00,,,0.01,0.000000,,2013-09-21 04:03:00,
2013-09-20 22:54:00,64.0,27.0,-100.00,SSW,206,9.0,14.0,25,0.00,,,0.01,0.000000,,2013-09-21 04:54:00,
2013-09-20 23:23:00,62.0,25.0,-100.00,SSW,212,7.0,14.0,24,0.00,,,0.01,0.000000,,2013-09-21 05:23:00,
2013-09-20 23:34:00,62.0,25.0,-100.00,SSW,212,7.0,14.0,24,0.00,,,0.01,0.000000,,2013-09-21 05:34:00,